owner,sensor,date,latitude,longitude,sea_water_turbidity,qcFlag 
NERRS,ioos:station:NOAA.NERRS:gndbcwq:1,2016-05-01T00:45:00Z,30.3836,-88.4364,33.0,1111122 
NERRS,ioos:station:NOAA.NERRS:gndbcwq:1,2016-05-01T01:45:00Z,30.3836,-88.4364,25.0,1111122 
NERRS,ioos:station:NOAA.NERRS:gndbcwq:1,2016-05-01T02:45:00Z,30.3836,-88.4364,27.0,1111122 
NERRS,ioos:station:NOAA.NERRS:gndbcwq:1,2016-05-01T03:45:00Z,30.3836,-88.4364,24.0,1111122 
NERRS,ioos:station:NOAA.NERRS:gndbcwq:1,2016-05-01T04:45:00Z,30.3836,-88.4364,22.0,1111122 
NERRS,ioos:station:NOAA.NERRS:gndbcwq:1,2016-05-01T05:45:00Z,30.3836,-88.4364,23.0,1111122 
NERRS,ioos:station:NOAA.NERRS:gndbcwq:1,2016-05-01T06:45:00Z,30.3836,-88.4364,21.0,1111122 
NERRS,ioos:station:NOAA.NERRS:gndbcwq:1,2016-05-01T07:45:00Z,30.3836,-88.4364,15.0,1111122 
NERRS,ioos:station:NOAA.NERRS:gndbcwq:1,2016-05-01T08:45:00Z,30.3836,-88.4364,18.0,1111122 
NERRS,ioos:station:NOAA.NERRS:gndbcwq:1,2016-05-01T09:45:00Z,30.3836,-88.4364,18.0,1111122 
NERRS,ioos:station:NOAA.NERRS:gndbcwq:1,2016-05-01T10:45:00Z,30.3836,-88.4364,21.0,1111122 
NERRS,ioos:station:NOAA.NERRS:gndbcwq:1,2016-05-01T11:45:00Z,30.3836,-88.4364,23.0,1111122 
NERRS,ioos:station:NOAA.NERRS:gndbcwq:1,2016-05-01T12:45:00Z,30.3836,-88.4364,24.0,1111122 
NERRS,ioos:station:NOAA.NERRS:gndbcwq:1,2016-05-01T13:45:00Z,30.3836,-88.4364,23.0,1111122 
NERRS,ioos:station:NOAA.NERRS:gndbcwq:1,2016-05-01T14:45:00Z,30.3836,-88.4364,24.0,1111122 
NERRS,ioos:station:NOAA.NERRS:gndbcwq:1,2016-05-01T15:45:00Z,30.3836,-88.4364,23.0,1111122 
NERRS,ioos:station:NOAA.NERRS:gndbcwq:1,2016-05-01T16:45:00Z,30.3836,-88.4364,25.0,1111122 
NERRS,ioos:station:NOAA.NERRS:gndbcwq:1,2016-05-01T17:45:00Z,30.3836,-88.4364,26.0,1111122 
NERRS,ioos:station:NOAA.NERRS:gndbcwq:1,2016-05-01T18:45:00Z,30.3836,-88.4364,30.0,1111122 
NERRS,ioos:station:NOAA.NERRS:gndbcwq:1,2016-05-01T19:45:00Z,30.3836,-88.4364,33.0,1111122 
NERRS,ioos:station:NOAA.NERRS:gndbcwq:1,2016-05-01T20:45:00Z,30.3836,-88.4364,28.0,1111122 
NERRS,ioos:station:NOAA.NERRS:gndbcwq:1,2016-05-01T21:45:00Z,30.3836,-88.4364,27.0,1111122 
NERRS,ioos:station:NOAA.NERRS:gndbcwq:1,2016-05-01T22:45:00Z,30.3836,-88.4364,26.0,1111122 
NERRS,ioos:station:NOAA.NERRS:gndbcwq:1,2016-05-01T23:45:00Z,30.3836,-88.4364,33.0,1111122 
NERRS,ioos:station:NOAA.NERRS:gndbcwq:1,2016-05-02T00:45:00Z,30.3836,-88.4364,31.0,1111122 
NERRS,ioos:station:NOAA.NERRS:gndbcwq:1,2016-05-02T01:45:00Z,30.3836,-88.4364,30.0,1111122 
NERRS,ioos:station:NOAA.NERRS:gndbcwq:1,2016-05-02T02:45:00Z,30.3836,-88.4364,26.0,1111122 
NERRS,ioos:station:NOAA.NERRS:gndbcwq:1,2016-05-02T03:45:00Z,30.3836,-88.4364,27.0,1111122 
NERRS,ioos:station:NOAA.NERRS:gndbcwq:1,2016-05-02T04:45:00Z,30.3836,-88.4364,23.0,1111122 
NERRS,ioos:station:NOAA.NERRS:gndbcwq:1,2016-05-02T05:45:00Z,30.3836,-88.4364,23.0,1111122 
NERRS,ioos:station:NOAA.NERRS:gndbcwq:1,2016-05-02T06:45:00Z,30.3836,-88.4364,18.0,1111122 
NERRS,ioos:station:NOAA.NERRS:gndbcwq:1,2016-05-02T07:45:00Z,30.3836,-88.4364,21.0,1111122 
NERRS,ioos:station:NOAA.NERRS:gndbcwq:1,2016-05-02T08:45:00Z,30.3836,-88.4364,21.0,1111122 
NERRS,ioos:station:NOAA.NERRS:gndbcwq:1,2016-05-02T09:45:00Z,30.3836,-88.4364,21.0,1111122 
NERRS,ioos:station:NOAA.NERRS:gndbcwq:1,2016-05-02T10:45:00Z,30.3836,-88.4364,21.0,1111122 
NERRS,ioos:station:NOAA.NERRS:gndbcwq:1,2016-05-02T11:45:00Z,30.3836,-88.4364,23.0,1111122 
NERRS,ioos:station:NOAA.NERRS:gndbcwq:1,2016-05-02T12:45:00Z,30.3836,-88.4364,25.0,1111122 
NERRS,ioos:station:NOAA.NERRS:gndbcwq:1,2016-05-02T13:45:00Z,30.3836,-88.4364,26.0,1111122 
NERRS,ioos:station:NOAA.NERRS:gndbcwq:1,2016-05-02T14:45:00Z,30.3836,-88.4364,27.0,1111122 
NERRS,ioos:station:NOAA.NERRS:gndbcwq:1,2016-05-02T15:45:00Z,30.3836,-88.4364,30.0,1111122 
NERRS,ioos:station:NOAA.NERRS:gndbcwq:1,2016-05-02T16:45:00Z,30.3836,-88.4364,24.0,1111122 
NERRS,ioos:station:NOAA.NERRS:gndbcwq:1,2016-05-02T17:45:00Z,30.3836,-88.4364,27.0,1111122 
NERRS,ioos:station:NOAA.NERRS:gndbcwq:1,2016-05-02T18:45:00Z,30.3836,-88.4364,29.0,1111122 
NERRS,ioos:station:NOAA.NERRS:gndbcwq:1,2016-05-02T19:45:00Z,30.3836,-88.4364,25.0,1111122 
NERRS,ioos:station:NOAA.NERRS:gndbcwq:1,2016-05-02T20:45:00Z,30.3836,-88.4364,33.0,1111122 
NERRS,ioos:station:NOAA.NERRS:gndbcwq:1,2016-05-02T21:45:00Z,30.3836,-88.4364,32.0,1111122 
NERRS,ioos:station:NOAA.NERRS:gndbcwq:1,2016-05-02T22:45:00Z,30.3836,-88.4364,28.0,1111122 
NERRS,ioos:station:NOAA.NERRS:gndbcwq:1,2016-05-02T23:45:00Z,30.3836,-88.4364,26.0,1111122 
NERRS,ioos:station:NOAA.NERRS:gndbcwq:1,2016-05-03T00:45:00Z,30.3836,-88.4364,32.0,1111122 
NERRS,ioos:station:NOAA.NERRS:gndbcwq:1,2016-05-03T01:45:00Z,30.3836,-88.4364,34.0,1111122 
NERRS,ioos:station:NOAA.NERRS:gndbcwq:1,2016-05-03T02:45:00Z,30.3836,-88.4364,36.0,1111122 
NERRS,ioos:station:NOAA.NERRS:gndbcwq:1,2016-05-03T03:45:00Z,30.3836,-88.4364,28.0,1111122 
NERRS,ioos:station:NOAA.NERRS:gndbcwq:1,2016-05-03T04:45:00Z,30.3836,-88.4364,25.0,1111122 
NERRS,ioos:station:NOAA.NERRS:gndbcwq:1,2016-05-03T05:45:00Z,30.3836,-88.4364,24.0,1111122 
NERRS,ioos:station:NOAA.NERRS:gndbcwq:1,2016-05-03T06:45:00Z,30.3836,-88.4364,24.0,1111122 
NERRS,ioos:station:NOAA.NERRS:gndbcwq:1,2016-05-03T07:45:00Z,30.3836,-88.4364,30.0,1111122 
NERRS,ioos:station:NOAA.NERRS:gndbcwq:1,2016-05-03T08:45:00Z,30.3836,-88.4364,25.0,1111122 
NERRS,ioos:station:NOAA.NERRS:gndbcwq:1,2016-05-03T09:45:00Z,30.3836,-88.4364,27.0,1111122 
NERRS,ioos:station:NOAA.NERRS:gndbcwq:1,2016-05-03T10:45:00Z,30.3836,-88.4364,28.0,1111122 
NERRS,ioos:station:NOAA.NERRS:gndbcwq:1,2016-05-03T11:45:00Z,30.3836,-88.4364,29.0,1111122 
NERRS,ioos:station:NOAA.NERRS:gndbcwq:1,2016-05-03T12:45:00Z,30.3836,-88.4364,33.0,1111122 
NERRS,ioos:station:NOAA.NERRS:gndbcwq:1,2016-05-03T13:45:00Z,30.3836,-88.4364,35.0,1111122 
NERRS,ioos:station:NOAA.NERRS:gndbcwq:1,2016-05-03T14:45:00Z,30.3836,-88.4364,33.0,1111122 
NERRS,ioos:station:NOAA.NERRS:gndbcwq:1,2016-05-03T15:45:00Z,30.3836,-88.4364,37.0,1111122 
NERRS,ioos:station:NOAA.NERRS:gndbcwq:1,2016-05-03T16:45:00Z,30.3836,-88.4364,35.0,1111122 
NERRS,ioos:station:NOAA.NERRS:gndbcwq:1,2016-05-03T17:45:00Z,30.3836,-88.4364,42.0,1111122 
NERRS,ioos:station:NOAA.NERRS:gndbcwq:1,2016-05-03T18:45:00Z,30.3836,-88.4364,42.0,1111122 
NERRS,ioos:station:NOAA.NERRS:gndbcwq:1,2016-05-03T19:45:00Z,30.3836,-88.4364,48.0,1111122 
NERRS,ioos:station:NOAA.NERRS:gndbcwq:1,2016-05-03T20:45:00Z,30.3836,-88.4364,55.0,1111122 
NERRS,ioos:station:NOAA.NERRS:gndbcwq:1,2016-05-03T21:45:00Z,30.3836,-88.4364,57.0,1111122 
NERRS,ioos:station:NOAA.NERRS:gndbcwq:1,2016-05-03T22:45:00Z,30.3836,-88.4364,57.0,1111122 
NERRS,ioos:station:NOAA.NERRS:gndbcwq:1,2016-05-03T23:45:00Z,30.3836,-88.4364,50.0,1111122 
NERRS,ioos:station:NOAA.NERRS:gndbcwq:1,2016-05-04T00:45:00Z,30.3836,-88.4364,49.0,1111122 
NERRS,ioos:station:NOAA.NERRS:gndbcwq:1,2016-05-04T01:45:00Z,30.3836,-88.4364,46.0,1111122 
NERRS,ioos:station:NOAA.NERRS:gndbcwq:1,2016-05-04T02:45:00Z,30.3836,-88.4364,52.0,1111122 
NERRS,ioos:station:NOAA.NERRS:gndbcwq:1,2016-05-04T03:45:00Z,30.3836,-88.4364,44.0,1111122 
NERRS,ioos:station:NOAA.NERRS:gndbcwq:1,2016-05-04T04:45:00Z,30.3836,-88.4364,49.0,1111122 
NERRS,ioos:station:NOAA.NERRS:gndbcwq:1,2016-05-04T05:45:00Z,30.3836,-88.4364,45.0,1111122 
NERRS,ioos:station:NOAA.NERRS:gndbcwq:1,2016-05-04T06:45:00Z,30.3836,-88.4364,45.0,1111122 
NERRS,ioos:station:NOAA.NERRS:gndbcwq:1,2016-05-04T07:45:00Z,30.3836,-88.4364,39.0,1111122 
NERRS,ioos:station:NOAA.NERRS:gndbcwq:1,2016-05-04T08:45:00Z,30.3836,-88.4364,49.0,1111122 
NERRS,ioos:station:NOAA.NERRS:gndbcwq:1,2016-05-04T09:45:00Z,30.3836,-88.4364,45.0,1111122 
NERRS,ioos:station:NOAA.NERRS:gndbcwq:1,2016-05-04T10:45:00Z,30.3836,-88.4364,56.0,1111122 
NERRS,ioos:station:NOAA.NERRS:gndbcwq:1,2016-05-04T11:45:00Z,30.3836,-88.4364,42.0,1111122 
NERRS,ioos:station:NOAA.NERRS:gndbcwq:1,2016-05-04T12:45:00Z,30.3836,-88.4364,50.0,1111122 
NERRS,ioos:station:NOAA.NERRS:gndbcwq:1,2016-05-04T13:45:00Z,30.3836,-88.4364,55.0,1111122 
NERRS,ioos:station:NOAA.NERRS:gndbcwq:1,2016-05-04T14:45:00Z,30.3836,-88.4364,60.0,1111122 
NERRS,ioos:station:NOAA.NERRS:gndbcwq:1,2016-05-04T15:45:00Z,30.3836,-88.4364,59.0,1111122 
NERRS,ioos:station:NOAA.NERRS:gndbcwq:1,2016-05-04T16:45:00Z,30.3836,-88.4364,52.0,1111122 
NERRS,ioos:station:NOAA.NERRS:gndbcwq:1,2016-05-04T17:45:00Z,30.3836,-88.4364,63.0,1111122 
NERRS,ioos:station:NOAA.NERRS:gndbcwq:1,2016-05-04T18:45:00Z,30.3836,-88.4364,77.0,1111122 
NERRS,ioos:station:NOAA.NERRS:gndbcwq:1,2016-05-04T19:45:00Z,30.3836,-88.4364,73.0,1111122 
NERRS,ioos:station:NOAA.NERRS:gndbcwq:1,2016-05-04T20:45:00Z,30.3836,-88.4364,84.0,1111122 
NERRS,ioos:station:NOAA.NERRS:gndbcwq:1,2016-05-04T21:45:00Z,30.3836,-88.4364,88.0,1111122 
NERRS,ioos:station:NOAA.NERRS:gndbcwq:1,2016-05-04T22:45:00Z,30.3836,-88.4364,82.0,1111122 
NERRS,ioos:station:NOAA.NERRS:gndbcwq:1,2016-05-04T23:45:00Z,30.3836,-88.4364,82.0,1111122 
NERRS,ioos:station:NOAA.NERRS:gndbcwq:1,2016-05-05T00:45:00Z,30.3836,-88.4364,90.0,1111122 
NERRS,ioos:station:NOAA.NERRS:gndbcwq:1,2016-05-05T01:45:00Z,30.3836,-88.4364,70.0,1111122 
NERRS,ioos:station:NOAA.NERRS:gndbcwq:1,2016-05-05T02:45:00Z,30.3836,-88.4364,74.0,1111122 
NERRS,ioos:station:NOAA.NERRS:gndbcwq:1,2016-05-05T03:45:00Z,30.3836,-88.4364,80.0,1111122 
NERRS,ioos:station:NOAA.NERRS:gndbcwq:1,2016-05-05T04:45:00Z,30.3836,-88.4364,79.0,1111122 
NERRS,ioos:station:NOAA.NERRS:gndbcwq:1,2016-05-05T05:45:00Z,30.3836,-88.4364,79.0,1111122 
NERRS,ioos:station:NOAA.NERRS:gndbcwq:1,2016-05-05T06:45:00Z,30.3836,-88.4364,87.0,1111122 
NERRS,ioos:station:NOAA.NERRS:gndbcwq:1,2016-05-05T07:45:00Z,30.3836,-88.4364,81.0,1111122 
NERRS,ioos:station:NOAA.NERRS:gndbcwq:1,2016-05-05T08:45:00Z,30.3836,-88.4364,79.0,1111122 
NERRS,ioos:station:NOAA.NERRS:gndbcwq:1,2016-05-05T09:45:00Z,30.3836,-88.4364,86.0,1111122 
NERRS,ioos:station:NOAA.NERRS:gndbcwq:1,2016-05-05T10:45:00Z,30.3836,-88.4364,62.0,1111122 
NERRS,ioos:station:NOAA.NERRS:gndbcwq:1,2016-05-05T11:45:00Z,30.3836,-88.4364,66.0,1111122 
NERRS,ioos:station:NOAA.NERRS:gndbcwq:1,2016-05-05T12:45:00Z,30.3836,-88.4364,70.0,1111122 
NERRS,ioos:station:NOAA.NERRS:gndbcwq:1,2016-05-05T13:45:00Z,30.3836,-88.4364,94.0,1111122 
NERRS,ioos:station:NOAA.NERRS:gndbcwq:1,2016-05-05T14:45:00Z,30.3836,-88.4364,95.0,1111122 
NERRS,ioos:station:NOAA.NERRS:gndbcwq:1,2016-05-05T15:45:00Z,30.3836,-88.4364,105.0,1111122 
NERRS,ioos:station:NOAA.NERRS:gndbcwq:1,2016-05-05T16:45:00Z,30.3836,-88.4364,165.0,1111122 
NERRS,ioos:station:NOAA.NERRS:gndbcwq:1,2016-05-05T17:45:00Z,30.3836,-88.4364,121.0,1111122 
NERRS,ioos:station:NOAA.NERRS:gndbcwq:1,2016-05-05T18:45:00Z,30.3836,-88.4364,147.0,1111122 
NERRS,ioos:station:NOAA.NERRS:gndbcwq:1,2016-05-05T19:45:00Z,30.3836,-88.4364,168.0,1111122 
NERRS,ioos:station:NOAA.NERRS:gndbcwq:1,2016-05-05T20:45:00Z,30.3836,-88.4364,115.0,1111122 
NERRS,ioos:station:NOAA.NERRS:gndbcwq:1,2016-05-05T21:45:00Z,30.3836,-88.4364,153.0,1111122 
NERRS,ioos:station:NOAA.NERRS:gndbcwq:1,2016-05-05T22:45:00Z,30.3836,-88.4364,133.0,1111122 
NERRS,ioos:station:NOAA.NERRS:gndbcwq:1,2016-05-05T23:45:00Z,30.3836,-88.4364,75.0,1111122 
NERRS,ioos:station:NOAA.NERRS:gndbcwq:1,2016-05-06T00:45:00Z,30.3836,-88.4364,83.0,1111122 
NERRS,ioos:station:NOAA.NERRS:gndbcwq:1,2016-05-06T01:45:00Z,30.3836,-88.4364,76.0,1111122 
NERRS,ioos:station:NOAA.NERRS:gndbcwq:1,2016-05-06T02:45:00Z,30.3836,-88.4364,81.0,1111122 
NERRS,ioos:station:NOAA.NERRS:gndbcwq:1,2016-05-06T03:45:00Z,30.3836,-88.4364,96.0,1111122 
NERRS,ioos:station:NOAA.NERRS:gndbcwq:1,2016-05-06T04:45:00Z,30.3836,-88.4364,97.0,1111122 
NERRS,ioos:station:NOAA.NERRS:gndbcwq:1,2016-05-06T05:45:00Z,30.3836,-88.4364,104.0,1111122 
NERRS,ioos:station:NOAA.NERRS:gndbcwq:1,2016-05-06T06:45:00Z,30.3836,-88.4364,104.0,1111122 
NERRS,ioos:station:NOAA.NERRS:gndbcwq:1,2016-05-06T07:45:00Z,30.3836,-88.4364,110.0,1111122 
NERRS,ioos:station:NOAA.NERRS:gndbcwq:1,2016-05-06T08:45:00Z,30.3836,-88.4364,99.0,1111122 
NERRS,ioos:station:NOAA.NERRS:gndbcwq:1,2016-05-06T09:45:00Z,30.3836,-88.4364,92.0,1111122 
NERRS,ioos:station:NOAA.NERRS:gndbcwq:1,2016-05-06T10:45:00Z,30.3836,-88.4364,82.0,1111122 
NERRS,ioos:station:NOAA.NERRS:gndbcwq:1,2016-05-06T11:45:00Z,30.3836,-88.4364,92.0,1111122 
NERRS,ioos:station:NOAA.NERRS:gndbcwq:1,2016-05-06T12:45:00Z,30.3836,-88.4364,94.0,1111122 
NERRS,ioos:station:NOAA.NERRS:gndbcwq:1,2016-05-06T13:45:00Z,30.3836,-88.4364,100.0,1111122 
NERRS,ioos:station:NOAA.NERRS:gndbcwq:1,2016-05-06T14:45:00Z,30.3836,-88.4364,167.0,1111122 
NERRS,ioos:station:NOAA.NERRS:gndbcwq:1,2016-05-06T15:45:00Z,30.3836,-88.4364,117.0,1111122 
NERRS,ioos:station:NOAA.NERRS:gndbcwq:1,2016-05-06T16:45:00Z,30.3836,-88.4364,107.0,1111122 
NERRS,ioos:station:NOAA.NERRS:gndbcwq:1,2016-05-06T17:45:00Z,30.3836,-88.4364,127.0,1111122 
NERRS,ioos:station:NOAA.NERRS:gndbcwq:1,2016-05-06T18:45:00Z,30.3836,-88.4364,147.0,1111122 
NERRS,ioos:station:NOAA.NERRS:gndbcwq:1,2016-05-06T19:45:00Z,30.3836,-88.4364,143.0,1111122 
NERRS,ioos:station:NOAA.NERRS:gndbcwq:1,2016-05-06T20:45:00Z,30.3836,-88.4364,157.0,1111122 
NERRS,ioos:station:NOAA.NERRS:gndbcwq:1,2016-05-06T21:45:00Z,30.3836,-88.4364,190.0,1111122 
NERRS,ioos:station:NOAA.NERRS:gndbcwq:1,2016-05-06T22:45:00Z,30.3836,-88.4364,159.0,1111122 
NERRS,ioos:station:NOAA.NERRS:gndbcwq:1,2016-05-06T23:45:00Z,30.3836,-88.4364,154.0,1111122 
NERRS,ioos:station:NOAA.NERRS:gndbcwq:1,2016-05-07T00:45:00Z,30.3836,-88.4364,161.0,1111122 
NERRS,ioos:station:NOAA.NERRS:gndbcwq:1,2016-05-07T01:45:00Z,30.3836,-88.4364,171.0,1111122 
NERRS,ioos:station:NOAA.NERRS:gndbcwq:1,2016-05-07T02:45:00Z,30.3836,-88.4364,179.0,1111122 
NERRS,ioos:station:NOAA.NERRS:gndbcwq:1,2016-05-07T03:45:00Z,30.3836,-88.4364,193.0,1111122 
NERRS,ioos:station:NOAA.NERRS:gndbcwq:1,2016-05-07T04:45:00Z,30.3836,-88.4364,201.0,1111122 
NERRS,ioos:station:NOAA.NERRS:gndbcwq:1,2016-05-07T05:45:00Z,30.3836,-88.4364,224.0,1111122 
NERRS,ioos:station:NOAA.NERRS:gndbcwq:1,2016-05-07T06:45:00Z,30.3836,-88.4364,226.0,1111122 
NERRS,ioos:station:NOAA.NERRS:gndbcwq:1,2016-05-07T07:45:00Z,30.3836,-88.4364,248.0,1111122 
NERRS,ioos:station:NOAA.NERRS:gndbcwq:1,2016-05-07T08:45:00Z,30.3836,-88.4364,226.0,1111122 
NERRS,ioos:station:NOAA.NERRS:gndbcwq:1,2016-05-07T09:45:00Z,30.3836,-88.4364,216.0,1111122 
NERRS,ioos:station:NOAA.NERRS:gndbcwq:1,2016-05-07T10:45:00Z,30.3836,-88.4364,220.0,1111122 
NERRS,ioos:station:NOAA.NERRS:gndbcwq:1,2016-05-07T11:45:00Z,30.3836,-88.4364,259.0,1111122 
NERRS,ioos:station:NOAA.NERRS:gndbcwq:1,2016-05-07T12:45:00Z,30.3836,-88.4364,244.0,1111122 
NERRS,ioos:station:NOAA.NERRS:gndbcwq:1,2016-05-07T13:45:00Z,30.3836,-88.4364,264.0,1111122 
NERRS,ioos:station:NOAA.NERRS:gndbcwq:1,2016-05-07T14:45:00Z,30.3836,-88.4364,254.0,1111122 
NERRS,ioos:station:NOAA.NERRS:gndbcwq:1,2016-05-07T15:45:00Z,30.3836,-88.4364,275.0,1111122 
NERRS,ioos:station:NOAA.NERRS:gndbcwq:1,2016-05-07T16:45:00Z,30.3836,-88.4364,253.0,1111122 
NERRS,ioos:station:NOAA.NERRS:gndbcwq:1,2016-05-07T17:45:00Z,30.3836,-88.4364,329.0,1111122 
NERRS,ioos:station:NOAA.NERRS:gndbcwq:1,2016-05-07T18:45:00Z,30.3836,-88.4364,332.0,1111122 
NERRS,ioos:station:NOAA.NERRS:gndbcwq:1,2016-05-07T19:45:00Z,30.3836,-88.4364,336.0,1111122 
NERRS,ioos:station:NOAA.NERRS:gndbcwq:1,2016-05-07T20:45:00Z,30.3836,-88.4364,349.0,1111122 
NERRS,ioos:station:NOAA.NERRS:gndbcwq:1,2016-05-07T21:45:00Z,30.3836,-88.4364,314.0,1111122 
NERRS,ioos:station:NOAA.NERRS:gndbcwq:1,2016-05-07T22:45:00Z,30.3836,-88.4364,334.0,1111122 
NERRS,ioos:station:NOAA.NERRS:gndbcwq:1,2016-05-07T23:45:00Z,30.3836,-88.4364,352.0,1111122 
NERRS,ioos:station:NOAA.NERRS:gndbcwq:1,2016-05-08T00:45:00Z,30.3836,-88.4364,334.0,1111122 
NERRS,ioos:station:NOAA.NERRS:gndbcwq:1,2016-05-08T01:45:00Z,30.3836,-88.4364,298.0,1111122 
NERRS,ioos:station:NOAA.NERRS:gndbcwq:1,2016-05-08T02:45:00Z,30.3836,-88.4364,314.0,1111122 
NERRS,ioos:station:NOAA.NERRS:gndbcwq:1,2016-05-08T03:45:00Z,30.3836,-88.4364,318.0,1111122 
NERRS,ioos:station:NOAA.NERRS:gndbcwq:1,2016-05-08T04:45:00Z,30.3836,-88.4364,325.0,1111122 
NERRS,ioos:station:NOAA.NERRS:gndbcwq:1,2016-05-08T05:45:00Z,30.3836,-88.4364,326.0,1111122 
NERRS,ioos:station:NOAA.NERRS:gndbcwq:1,2016-05-08T06:45:00Z,30.3836,-88.4364,286.0,1111122 
NERRS,ioos:station:NOAA.NERRS:gndbcwq:1,2016-05-08T07:45:00Z,30.3836,-88.4364,293.0,1111122 
NERRS,ioos:station:NOAA.NERRS:gndbcwq:1,2016-05-08T08:45:00Z,30.3836,-88.4364,316.0,1111122 
NERRS,ioos:station:NOAA.NERRS:gndbcwq:1,2016-05-08T09:45:00Z,30.3836,-88.4364,298.0,1111122 
NERRS,ioos:station:NOAA.NERRS:gndbcwq:1,2016-05-08T10:45:00Z,30.3836,-88.4364,302.0,1111122 
NERRS,ioos:station:NOAA.NERRS:gndbcwq:1,2016-05-08T11:45:00Z,30.3836,-88.4364,316.0,1111122 
NERRS,ioos:station:NOAA.NERRS:gndbcwq:1,2016-05-08T12:45:00Z,30.3836,-88.4364,327.0,1111122 
NERRS,ioos:station:NOAA.NERRS:gndbcwq:1,2016-05-08T13:45:00Z,30.3836,-88.4364,297.0,1111122 
NERRS,ioos:station:NOAA.NERRS:gndbcwq:1,2016-05-08T14:45:00Z,30.3836,-88.4364,334.0,1111122 
NERRS,ioos:station:NOAA.NERRS:gndbcwq:1,2016-05-08T15:45:00Z,30.3836,-88.4364,350.0,1111122 
NERRS,ioos:station:NOAA.NERRS:gndbcwq:1,2016-05-08T16:45:00Z,30.3836,-88.4364,357.0,1111122 
NERRS,ioos:station:NOAA.NERRS:gndbcwq:1,2016-05-08T17:45:00Z,30.3836,-88.4364,389.0,1111122 
NERRS,ioos:station:NOAA.NERRS:gndbcwq:1,2016-05-08T18:45:00Z,30.3836,-88.4364,364.0,1111122 
NERRS,ioos:station:NOAA.NERRS:gndbcwq:1,2016-05-08T19:45:00Z,30.3836,-88.4364,372.0,1111122 
NERRS,ioos:station:NOAA.NERRS:gndbcwq:1,2016-05-08T20:45:00Z,30.3836,-88.4364,338.0,1111122 
NERRS,ioos:station:NOAA.NERRS:gndbcwq:1,2016-05-08T21:45:00Z,30.3836,-88.4364,380.0,1111122 
NERRS,ioos:station:NOAA.NERRS:gndbcwq:1,2016-05-08T22:45:00Z,30.3836,-88.4364,375.0,1111122 
NERRS,ioos:station:NOAA.NERRS:gndbcwq:1,2016-05-08T23:45:00Z,30.3836,-88.4364,372.0,1111122 
NERRS,ioos:station:NOAA.NERRS:gndbcwq:1,2016-05-09T00:45:00Z,30.3836,-88.4364,341.0,1111122 
NERRS,ioos:station:NOAA.NERRS:gndbcwq:1,2016-05-09T01:45:00Z,30.3836,-88.4364,356.0,1111122 
NERRS,ioos:station:NOAA.NERRS:gndbcwq:1,2016-05-09T02:45:00Z,30.3836,-88.4364,375.0,1111122 
NERRS,ioos:station:NOAA.NERRS:gndbcwq:1,2016-05-09T03:45:00Z,30.3836,-88.4364,369.0,1111122 
NERRS,ioos:station:NOAA.NERRS:gndbcwq:1,2016-05-09T04:45:00Z,30.3836,-88.4364,368.0,1111122 
NERRS,ioos:station:NOAA.NERRS:gndbcwq:1,2016-05-09T05:45:00Z,30.3836,-88.4364,394.0,1111122 
NERRS,ioos:station:NOAA.NERRS:gndbcwq:1,2016-05-09T06:45:00Z,30.3836,-88.4364,379.0,1111122 
NERRS,ioos:station:NOAA.NERRS:gndbcwq:1,2016-05-09T07:45:00Z,30.3836,-88.4364,307.0,1111122 
NERRS,ioos:station:NOAA.NERRS:gndbcwq:1,2016-05-09T08:45:00Z,30.3836,-88.4364,300.0,1111122 
NERRS,ioos:station:NOAA.NERRS:gndbcwq:1,2016-05-09T09:45:00Z,30.3836,-88.4364,268.0,1111122 
NERRS,ioos:station:NOAA.NERRS:gndbcwq:1,2016-05-09T10:45:00Z,30.3836,-88.4364,210.0,1111122 
NERRS,ioos:station:NOAA.NERRS:gndbcwq:1,2016-05-09T11:45:00Z,30.3836,-88.4364,220.0,1111122 
NERRS,ioos:station:NOAA.NERRS:gndbcwq:1,2016-05-09T12:45:00Z,30.3836,-88.4364,243.0,1111122 
NERRS,ioos:station:NOAA.NERRS:gndbcwq:1,2016-05-09T13:45:00Z,30.3836,-88.4364,247.0,1111122 
NERRS,ioos:station:NOAA.NERRS:gndbcwq:1,2016-05-09T14:45:00Z,30.3836,-88.4364,236.0,1111122 
NERRS,ioos:station:NOAA.NERRS:gndbcwq:1,2016-05-09T15:45:00Z,30.3836,-88.4364,251.0,1111122 
NERRS,ioos:station:NOAA.NERRS:gndbcwq:1,2016-05-09T16:45:00Z,30.3836,-88.4364,282.0,1111122 
NERRS,ioos:station:NOAA.NERRS:gndbcwq:1,2016-05-09T17:45:00Z,30.3836,-88.4364,276.0,1111122 
NERRS,ioos:station:NOAA.NERRS:gndbcwq:1,2016-05-09T18:45:00Z,30.3836,-88.4364,278.0,1111122 
NERRS,ioos:station:NOAA.NERRS:gndbcwq:1,2016-05-09T19:45:00Z,30.3836,-88.4364,282.0,1111122 
NERRS,ioos:station:NOAA.NERRS:gndbcwq:1,2016-05-09T20:45:00Z,30.3836,-88.4364,238.0,1111122 
NERRS,ioos:station:NOAA.NERRS:gndbcwq:1,2016-05-09T21:45:00Z,30.3836,-88.4364,244.0,1111122 
NERRS,ioos:station:NOAA.NERRS:gndbcwq:1,2016-05-09T22:45:00Z,30.3836,-88.4364,253.0,1111122 
NERRS,ioos:station:NOAA.NERRS:gndbcwq:1,2016-05-09T23:45:00Z,30.3836,-88.4364,266.0,1111122 
NERRS,ioos:station:NOAA.NERRS:gndbcwq:1,2016-05-10T00:45:00Z,30.3836,-88.4364,231.0,1111122 
NERRS,ioos:station:NOAA.NERRS:gndbcwq:1,2016-05-10T01:45:00Z,30.3836,-88.4364,255.0,1111122 
NERRS,ioos:station:NOAA.NERRS:gndbcwq:1,2016-05-10T02:45:00Z,30.3836,-88.4364,248.0,1111122 
NERRS,ioos:station:NOAA.NERRS:gndbcwq:1,2016-05-10T03:45:00Z,30.3836,-88.4364,248.0,1111122 
NERRS,ioos:station:NOAA.NERRS:gndbcwq:1,2016-05-10T04:45:00Z,30.3836,-88.4364,275.0,1111122 
NERRS,ioos:station:NOAA.NERRS:gndbcwq:1,2016-05-10T05:45:00Z,30.3836,-88.4364,259.0,1111122 
NERRS,ioos:station:NOAA.NERRS:gndbcwq:1,2016-05-10T06:45:00Z,30.3836,-88.4364,263.0,1111122 
NERRS,ioos:station:NOAA.NERRS:gndbcwq:1,2016-05-10T12:45:00Z,30.3836,-88.4364,252.0,1111122 
NERRS,ioos:station:NOAA.NERRS:gndbcwq:1,2016-05-10T14:45:00Z,30.3836,-88.4364,212.0,1111122 
NERRS,ioos:station:NOAA.NERRS:gndbcwq:1,2016-05-10T15:45:00Z,30.3836,-88.4364,213.0,1111122 
NERRS,ioos:station:NOAA.NERRS:gndbcwq:1,2016-05-10T16:45:00Z,30.3836,-88.4364,251.0,1111122 
NERRS,ioos:station:NOAA.NERRS:gndbcwq:1,2016-05-10T17:45:00Z,30.3836,-88.4364,265.0,1111122 
NERRS,ioos:station:NOAA.NERRS:gndbcwq:1,2016-05-10T18:45:00Z,30.3836,-88.4364,242.0,1111122 
NERRS,ioos:station:NOAA.NERRS:gndbcwq:1,2016-05-10T19:45:00Z,30.3836,-88.4364,298.0,1111122 
NERRS,ioos:station:NOAA.NERRS:gndbcwq:1,2016-05-10T20:45:00Z,30.3836,-88.4364,261.0,1111122 
NERRS,ioos:station:NOAA.NERRS:gndbcwq:1,2016-05-10T21:45:00Z,30.3836,-88.4364,256.0,1111122 
NERRS,ioos:station:NOAA.NERRS:gndbcwq:1,2016-05-10T22:45:00Z,30.3836,-88.4364,279.0,1111122 
NERRS,ioos:station:NOAA.NERRS:gndbcwq:1,2016-05-10T23:45:00Z,30.3836,-88.4364,268.0,1111122 
NERRS,ioos:station:NOAA.NERRS:gndbcwq:1,2016-05-11T00:45:00Z,30.3836,-88.4364,258.0,1111122 
NERRS,ioos:station:NOAA.NERRS:gndbcwq:1,2016-05-11T01:45:00Z,30.3836,-88.4364,291.0,1111122 
NERRS,ioos:station:NOAA.NERRS:gndbcwq:1,2016-05-11T02:45:00Z,30.3836,-88.4364,273.0,1111122 
NERRS,ioos:station:NOAA.NERRS:gndbcwq:1,2016-05-11T03:45:00Z,30.3836,-88.4364,308.0,1111122 
NERRS,ioos:station:NOAA.NERRS:gndbcwq:1,2016-05-11T04:45:00Z,30.3836,-88.4364,285.0,1111122 
NERRS,ioos:station:NOAA.NERRS:gndbcwq:1,2016-05-11T05:45:00Z,30.3836,-88.4364,278.0,1111122 
NERRS,ioos:station:NOAA.NERRS:gndbcwq:1,2016-05-11T06:45:00Z,30.3836,-88.4364,291.0,1111122 
NERRS,ioos:station:NOAA.NERRS:gndbcwq:1,2016-05-11T07:45:00Z,30.3836,-88.4364,278.0,1111122 
NERRS,ioos:station:NOAA.NERRS:gndbcwq:1,2016-05-11T08:45:00Z,30.3836,-88.4364,278.0,1111122 
NERRS,ioos:station:NOAA.NERRS:gndbcwq:1,2016-05-11T09:45:00Z,30.3836,-88.4364,272.0,1111122 
NERRS,ioos:station:NOAA.NERRS:gndbcwq:1,2016-05-11T10:45:00Z,30.3836,-88.4364,268.0,1111122 
NERRS,ioos:station:NOAA.NERRS:gndbcwq:1,2016-05-11T11:45:00Z,30.3836,-88.4364,280.0,1111122 
NERRS,ioos:station:NOAA.NERRS:gndbcwq:1,2016-05-11T12:45:00Z,30.3836,-88.4364,274.0,1111122 
NERRS,ioos:station:NOAA.NERRS:gndbcwq:1,2016-05-11T13:45:00Z,30.3836,-88.4364,292.0,1111122 
NERRS,ioos:station:NOAA.NERRS:gndbcwq:1,2016-05-11T14:45:00Z,30.3836,-88.4364,294.0,1111122 
NERRS,ioos:station:NOAA.NERRS:gndbcwq:1,2016-05-11T16:45:00Z,30.3836,-88.4364,297.0,1111122 
NERRS,ioos:station:NOAA.NERRS:gndbcwq:1,2016-05-11T17:45:00Z,30.3836,-88.4364,277.0,1111122 
NERRS,ioos:station:NOAA.NERRS:gndbcwq:1,2016-05-12T05:45:00Z,30.3836,-88.4364,261.0,1111122 
NERRS,ioos:station:NOAA.NERRS:gndbcwq:1,2016-05-12T06:45:00Z,30.3836,-88.4364,252.0,1111122 
NERRS,ioos:station:NOAA.NERRS:gndbcwq:1,2016-05-16T14:45:00Z,30.3836,-88.4364,93.0,1111122 
NERRS,ioos:station:NOAA.NERRS:gndbcwq:1,2016-05-16T15:45:00Z,30.3836,-88.4364,90.0,1111122 
NERRS,ioos:station:NOAA.NERRS:gndbcwq:1,2016-05-16T16:45:00Z,30.3836,-88.4364,92.0,1111122 
NERRS,ioos:station:NOAA.NERRS:gndbcwq:1,2016-05-16T17:45:00Z,30.3836,-88.4364,91.0,1111122 
NERRS,ioos:station:NOAA.NERRS:gndbcwq:1,2016-05-16T18:45:00Z,30.3836,-88.4364,98.0,1111122 